THORAD AGENA D DEB

Satellite information

Favourite Embed

Satellite Type and Status

DEBRISIN ORBIT

Key statistics

Satellite THORAD AGENA D DEB at a glance.

Uptime

20242

Days in orbit

Revolutions

≈ 14.3

Per day

Orbit

SSO

Sun Synchronous Orbit

Inclination

99.0

Latest

Satellite identification and parameters

Extended collection of information and parameters for THORAD AGENA D DEB.

Object identification

Identified? True

Debris? True

Object name: THORAD AGENA D DEB

International designator: 1970-025CL

Object number (NORAD): 4737

Object ID (CCSDS): 4737

Country: UNITED STATES OF AMERICA (US)

Current information (Y/N): Y

RCS size: SMALL

Orbital parameters

Period: 100.721 minutes

Inclination: 99.0346 deg

SMA: 7170.881 km

Apoapsis: 809.807 km

Periapsis: 775.685 km

RAAN: 224.4677 deg

Eccentricy: 0.00237921

Argument of periapsis: 177.577 deg

Mean anomaly: 182.5531 deg

Mean motion: 14.29696976 rev/day

Mean motion (dot): 0.00004799 rev/day2

B* drag term: 0.0018828895 1/REarth

Two-line elements (TLE)

Creation date: Sept. 8, 2025, 3:16 a.m.

Reference frame: TEME

Reference center: EARTH

Epoch: Sept. 7, 2025, 10:04 p.m. UTC

TLE line 0: 0 THORAD AGENA D DEB

TLE line 1: 1 04737U 70025CL 25250.91956067 .00004799 00000-0 18829-2 0 9991

TLE line 2: 2 04737 99.0346 224.4677 0023792 177.5770 182.5531 14.29696976807226

Live tracking on map

Real-time ground track for satellite THORAD AGENA D DEB.

In-orbit conjunctions

A list of the most updated potential collisions computed for object THORAD AGENA D DEB.

Target Orbit TCA Probability of collision Miss distance Type
COSMOS 1867 COOLANT LEO 2024-09-26 15:24:51 0.000164149 893.0 (m) DEBRIS
FENGYUN 1C DEB SSO 2024-08-12 09:13:40 0.0001666395 36.0 (m) DEBRIS

Associated space launch

Meteorological research and development satellite

THORAD AGENA D DEB was lifted into orbit during the mission ‘Thorad SLV-2G Agena D | Nimbus 4’, on board a Thorad SLV-2G Agena D space rocket.

The launch took place on April 8, 1970, 8:17 a.m. from Space Launch Complex 2E.

For more information about the launch, click the button.

Launch to space Thorad SLV-2G Agena D | Nimbus 4
Thorad SLV-2G Agena D | Nimbus 4

Agency: N/A

Status: Launch Successful

Launch date: April 8, 1970, 8:17 a.m. UTC

Rocket: Thorad SLV-2G Agena D

Launch pad: Space Launch Complex 2E

Location: Vandenberg SFB, CA, USA

...

Latest news about this satellite

There are no fresh news available about this satellite. Check back as we update our databases every day.


Newsletter sign-up

Weekly statistics, charts and insights to help you stay on top of the space industry.